STARLINK-34722, 64851

Orbit data source: Space-Track

STARLINK-34722, 64851 is a payload satellite owned by SpaceX/Seattle (US) in SSO that was launched on Sat, 19 Jul 2025 UTC via an FALCON 9 launch vehicle from the Air Force Western Test Range (AFWTR). Payload-class satellites include a variety of spacecraft equipped with specific instruments for various scientific and technological missions. These include communications satellites like Starlink; space stations such as the ISS; scientific satellites like the Hubble; Earth observation satellites from companies like Planet Labs, Umbra, and HawkEye 360; GPS; miniature CubeSats for education and research; and military/defense satellites.

Loading next visibility...
Identifier
64851, 2025-152K
Orbit
SSO
Country
Flag of USUS
Related business
Manufacturer
SpaceX/Seattle
Mission
Operational Commercial Communications
Bus & Motor
STARLINK V2MO, Unknown motor
Mass
575 kg wet, ~530 kg dry
Launch date (UTC)
2025-07-19 (9 months ago)
Launch vehicle
FALCON 9
Launch site
Air Force Western Test Range (AFWTR)
Object type
Payload
Rocket body
Debris
Shape & HBR
Box + 2 Pan, 17.7 m
Radar Cross Section
36.964 m², Large (>1 m²)

Expand to show TLE details & history
Last TLE update: 10 hours ago

TLE from 10 hours ago
0 STARLINK-34722
1 64851U 25152K   26095.19839934  .00002430  00000-0  17259-3 0  9993
2 64851  97.6019 311.5941 0001909  89.9259 270.2187 15.05648127 39405
Epoch: 2026-04-05T04:45Z
TLE epoch observation values (Epoch: 2026-04-05T04:45:41.702Z)
Latitude
-0.00001°
Longitude
46.66308°
Altitude
552.577 km
Speed
7.585 km/s
True Right ascension
20h 46m 22s
True Declination
0° 00' 00"
Sunlit
Object was in daylight at epoch
Visualization orbit readout
Latitude
Unknown
Longitude
Unknown
Altitude
Unknown
Speed
Unknown
Apparent Right ascension
Unknown
Apparent Declination
Unknown
Sunlit
N/A
Visualization observer readout
Local Sidereal Time
20:16:54
Azimuth
Unknown
Elevation
Unknown
Doppler factor
Unknown
Orbital elements
Apogee altitude
547.832 km
Perigee altitude
545.188 km
Semi-major axis
6,924.647 km
Eccentricity
0.00019
Inclination
97.6019°
RAAN
311.5941°
Arg. of periapsis
89.9259°
True anomaly
270.19682°
Mean anomaly
270.2187°
Eccentric anomaly
270.20776°
Mean motion
3.76658 °/min
Orbital period
95.58 mins
BSTAR
0.00017259
Loading maneuver chart data...
Computing Atmospheric mass density...
Loading historical data...
Loading historical data...
Loading historical data...
Loading historical data...
Loading historical data...
Loading historical data...
Loading historical data...

Documentation

Showing up to 5 results
|